GFSFLT2_sfc_temp_096.txt.gz
Temp
48 47 47 47 46 47 47 46 47 50 51 51 51 50 50 50 50 51 52 53 54 55 57 62 64 65 65
45 43 44 45 45 42 44 45 47 48 49 50 50 49 48 48 48 49 50 51 52 52 53 57 63 64 64
45 45 43 43 41 41 41 41 44 44 46 46 48 47 47 47 47 47 48 50 51 51 51 53 56 61 63
45 42 42 40 40 38 37 39 40 45 43 44 44 43 45 46 46 46 47 48 50 50 50 50 51 54 58
41 40 38 37 37 38 38 39 44 45 44 44 45 45 45 46 46 46 46 47 48 49 49 49 50 51 52
40 38 39 39 38 38 42 41 40 43 40 40 42 42 43 44 44 45 46 46 47 47 48 48 49 49 49
41 40 39 40 42 41 42 41 41 39 40 40 41 40 43 44 44 44 45 45 45 46 46 47 47 48 48
46 48 47 46 45 43 41 41 40 40 40 37 39 39 41 42 41 43 43 44 44 44 44 44 44 46 47
41 41 41 41 44 42 38 37 37 38 39 39 37 37 39 39 41 40 40 41 41 42 43 42 41 42 44
41 41 42 41 39 42 40 35 36 35 38 36 35 35 34 37 38 40 41 38 38 39 40 41 41 44 44
41 41 41 40 40 41 40 36 34 34 37 36 32 34 33 34 35 37 37 39 39 39 38 38 39 40 41
39 39 38 37 37 37 37 37 37 34 37 33 32 33 32 33 34 35 35 36 36 36 36 36 36 37 38
37 36 37 37 34 33 33 33 32 34 33 32 33 31 32 31 32 33 33 34 34 33 34 35 36 36 35
38 38 36 34 34 35 33 33 33 32 32 32 32 31 31 32 32 32 34 31 32 33 33 34 35 36 35
36 35 35 34 34 34 33 32 31 32 32 32 33 33 33 31 30 33 33 33 33 32 31 31 34 35 35
35 35 33 33 32 32 32 31 31 32 32 32 32 31 31 33 33 32 34 33 34 32 31 29 31 36 37
33 33 33 33 32 32 31 31 31 32 32 32 31 30 28 28 34 34 31 33 32 32 32 32 31 33 37

GFSFLT2_sfc_temp_102.txt.gz
Temp
44 45 46 44 44 46 46 45 47 51 51 51 50 50 50 50 50 50 51 52 53 54 55 56 57 62 64
45 42 43 45 44 42 44 46 45 48 49 49 49 49 48 49 49 49 49 50 51 52 53 54 56 62 64
43 43 43 42 41 41 41 41 45 44 46 48 48 47 47 48 48 47 48 49 50 51 51 51 53 61 63
42 42 41 41 40 38 37 39 39 44 44 44 45 45 46 47 46 47 47 48 49 50 50 50 50 55 58
39 40 38 36 36 38 36 36 38 39 39 35 34 34 37 42 44 46 47 48 48 49 49 49 49 51 54
38 38 37 37 38 36 35 34 33 34 31 31 32 31 33 35 45 46 46 47 47 47 48 49 48 49 51
39 39 36 38 37 35 35 36 34 30 30 28 31 30 33 38 43 45 45 45 45 45 45 47 48 49 50
37 38 39 41 40 39 37 32 30 31 30 24 29 29 31 32 43 43 43 43 44 44 44 44 46 48 49
42 44 45 45 40 33 28 27 26 28 29 29 27 27 29 30 33 41 41 41 41 43 43 43 45 44 44
33 36 38 40 43 33 29 26 23 23 29 25 24 25 22 29 30 31 32 40 40 41 41 42 42 37 36
30 30 30 31 30 30 31 30 21 21 30 26 18 22 23 24 26 28 30 31 31 33 39 40 41 38 33
30 28 27 26 26 27 30 28 28 27 30 28 18 21 16 19 23 25 25 26 27 28 27 35 38 40 40
28 26 25 26 26 25 26 27 24 27 28 22 17 16 16 15 19 23 22 25 25 23 25 26 26 27 25
26 26 28 27 22 22 19 21 21 26 28 20 17 18 16 18 19 19 20 19 21 22 24 25 28 29 28
26 27 27 27 26 23 22 24 22 23 26 25 26 24 20 18 17 20 21 21 21 21 22 21 24 26 28
28 29 27 27 26 24 24 23 25 25 24 21 19 19 21 25 29 19 20 21 21 23 23 16 19 26 29
30 29 27 27 30 27 26 25 25 26 25 24 20 16 13 15 24 33 19 19 21 22 22 21 17 24 30

GFSFLT2_sfc_temp_105.txt.gz
Temp
44 44 44 43 43 43 45 44 47 52 52 51 50 50 50 50 50 50 50 51 52 53 54 56 56 58 61
44 42 44 45 44 43 44 46 45 49 49 50 49 49 48 49 49 48 49 49 51 51 53 54 54 58 63
42 43 43 42 41 41 41 42 45 46 47 48 48 47 48 48 48 47 48 49 50 50 51 51 52 58 62
42 42 41 41 41 38 37 39 39 44 46 45 46 46 46 47 46 46 47 48 49 50 50 50 50 54 57
38 40 38 37 36 37 37 37 38 39 39 38 36 33 35 40 42 45 47 47 48 48 49 49 50 51 54
38 39 38 38 38 36 35 34 33 36 31 31 31 30 32 34 45 46 46 46 46 46 47 48 49 51 51
40 39 39 39 37 35 35 35 35 33 30 28 29 29 31 37 43 45 44 45 45 45 45 47 48 50 50
38 42 42 39 39 38 37 34 32 31 30 24 27 28 30 31 43 43 43 43 43 44 44 46 46 48 49
42 43 45 45 42 36 31 28 25 28 28 28 26 26 28 29 31 41 41 41 42 43 43 44 44 44 43
34 38 40 41 44 35 31 25 23 23 28 25 23 24 21 27 29 30 30 39 41 41 42 43 42 35 35
30 30 30 30 30 31 31 25 19 19 29 25 15 21 21 22 24 26 29 30 30 32 38 40 41 39 32
29 28 28 27 26 27 29 29 27 27 30 22 17 18 14 16 22 24 23 25 26 29 29 35 38 40 41
30 28 26 26 26 27 26 25 24 27 28 28 18 13 15 14 18 20 20 23 24 23 25 27 26 27 26
31 28 27 26 24 24 18 17 21 26 26 20 19 20 17 17 19 18 19 19 20 22 24 25 28 29 28
29 28 28 28 26 23 19 18 18 22 20 26 28 27 24 22 18 18 20 20 19 20 22 20 24 25 28
30 30 28 27 26 24 20 19 18 19 20 23 24 24 25 27 28 19 19 19 19 22 22 15 18 25 28
31 29 28 27 29 28 26 21 23 23 21 22 20 23 21 21 26 33 19 18 19 21 21 20 16 23 29

GFSFLT2_sfc_temp_111.txt.gz
Temp
45 45 45 44 44 44 45 44 44 52 53 52 51 50 50 50 50 50 50 51 51 52 53 54 55 56 57
43 43 44 43 41 40 42 44 42 49 51 51 50 50 49 49 49 48 48 49 50 51 51 52 54 55 57
42 43 43 44 42 41 39 39 43 47 50 49 50 49 48 48 48 47 47 48 49 49 49 51 52 53 55
42 42 42 42 42 39 38 38 38 43 46 46 47 47 47 47 45 45 46 47 48 48 48 49 50 51 53
41 41 39 38 38 39 38 37 38 40 39 39 37 37 38 40 41 44 46 46 46 47 47 48 50 50 51
41 41 41 39 38 36 36 35 35 36 36 34 34 33 33 32 41 45 45 45 45 45 46 47 48 49 50
43 42 40 40 38 35 35 36 36 33 33 31 31 31 32 36 42 44 44 44 44 44 45 46 46 47 49
45 43 44 42 42 40 38 36 34 33 33 29 29 30 30 31 40 43 42 42 43 44 44 45 44 45 46
45 45 46 46 42 38 34 34 32 32 31 31 27 27 27 28 31 41 41 41 42 43 43 44 43 42 41
37 40 43 42 45 40 37 34 32 30 31 28 25 26 22 27 28 30 30 38 40 40 41 43 42 32 32
33 32 32 36 36 33 34 36 32 32 31 26 18 22 21 24 25 26 28 29 29 30 36 40 42 38 30
32 32 31 30 31 31 31 32 33 33 34 26 22 23 21 19 23 25 22 22 23 26 25 33 37 40 42
32 32 31 31 27 27 27 29 29 30 29 24 24 18 20 18 21 21 21 22 22 20 23 26 27 27 26
32 31 29 28 28 28 27 27 26 26 28 26 23 24 17 18 20 18 18 19 20 21 23 25 28 29 28
31 29 29 28 28 27 25 24 25 24 24 26 27 26 23 23 19 19 20 21 21 22 23 21 24 27 29
31 30 29 28 28 26 25 25 24 23 23 25 24 23 24 27 29 21 19 22 23 25 24 19 19 25 28
31 30 30 29 29 26 25 25 24 22 19 21 20 20 18 21 25 32 19 22 23 25 25 24 20 23 29